Regional Weather Roundup
Issued by NWS Midland/Odessa, TX

Skip options and go directly to product.
Home | Oldest Version | Previous Version | Current Version | All | Text Only | Save Text | Print | Product List | Glossary On

Skip product version selection by date and time.   
256
ASUS44 KMAF 011901
RWRMAF
MIDLAND AREA WEATHER ROUNDUP
NATIONAL WEATHER SERVICE MIDLAND TX
200 PM CDT SAT OCT 01 2016

...IN SOUTHWEST TEXAS AND SOUTHEAST NEW MEXICO...

CITY           SKY/WX    TMP DP  RH WIND       PRES   REMARKS
ALPINE         PTSUNNY   77  56  48 CALM      30.21F
ANDREWS        FAIR      80  60  50 S10       30.09F
ARTESIA        SUNNY     79  61  53 SE10      30.08F
BIG SPRING     SUNNY     81  53  37 S12       30.10F
CARLSBAD       SUNNY     80  60  50 S8        30.06F
DRYDEN           N/A     77  63  61 SE6       30.07F
FORT STOCKTON  MOSUNNY   80  61  52 CALM      30.08F
GUAD PASS      SUNNY     76  58  53 W21G29    30.21F
HOBBS          SUNNY     79  59  50 SE7       30.10F
MARFA          PTSUNNY   77  59  53 SW8       30.19F
MIDLAND AIRPK  SUNNY     81  56  42 S8        30.09F
MIDLAND INTL   SUNNY     81  58  45 S10       30.08F
ODESSA         MOSUNNY   81  58  45 VRB3      30.08F
PECOS          SUNNY     81  63  54 SW8       30.06F
PRESIDIO       FAIR      81  62  52 CALM      30.08F
SEMINOLE       SUNNY     78  60  52 S7        30.11F
SNYDER           N/A     80  52  37 SW8       30.09F
WINK           SUNNY     83  60  45 SW8       30.04F
$$
...OTHER STATIONS IN TEXAS...

CITY           SKY/WX    TMP DP  RH WIND       PRES   REMARKS
ABILENE        SUNNY     81  55  40 SE8       30.08F
AMARILLO       MOSUNNY   82  57  42 S18       30.06F
AUSTIN         CLOUDY    80  54  40 S5        30.07F
BROWNSVILLE    SUNNY     88  64  44 VRB3      30.01F
CORPUS CHRISTI PTSUNNY   84  63  49 VRB6      30.03F
DALLAS FTW     PTSUNNY   81  48  31 CALM      30.05F
DEL RIO        CLOUDY    74  59  59 SE12      30.07F
EL PASO        MOSUNNY   80  55  42 W7        30.12F
HOUSTON INT    CLOUDY    79  58  48 VRB3      30.05F
LUBBOCK        MOSUNNY   81  56  42 S20       30.07F
SAN ANGELO     PTSUNNY   84  55  36 S10       30.07F
SAN ANTONIO    CLOUDY    77  53  43 CALM      30.08F
WACO           MOSUNNY   80  55  42 VRB6      30.08F
WICHITA FALLS  NOT AVBL
$$
...OTHER LOCATIONS IN NEW MEXICO...

CITY           SKY/WX    TMP DP  RH WIND       PRES   REMARKS
ALAMAGORDO     MOSUNNY   75  57  53 W5        30.15F
ALBUQUERQUE    MOSUNNY   74  47  38 SW6       30.20F
CANNON AFB     SUNNY     78  54  42 VRB6      30.08F
CLOVIS         SUNNY     77  55  47 SW10      30.09F
HOLLOMAN AFB   SUNNY     77  58  52 SW10      30.13F
ROSWELL        SUNNY     81  56  42 SE13      30.07F
RUIDOSO        PTSUNNY   68  45  42 S10       30.27F
SANTA FE       CLOUDY    71  38  29 SW8       30.22F
TRUTH OR CONSE PTSUNNY   78  49  35 VRB3      30.16F
TUCUMCARI      SUNNY     83  49  30 VRB3      30.04F
$$

  • National Weather Service
  • Southern Region Headquarters
  • 819 Taylor Street, Room 10A06
  • Fort Worth, TX 76102
  • Page Author: NWS Fort Worth
  • Web Master: SR-SRH.Webmaster@noaa.gov
  •  
  • Page last modified: 30-Sep-2016 6:36 PM UTC
USA.gov is the U.S. government's official web portal to all federal, state and local government web resources and services.